Change the Weather History Date:

Wednesday, December 5, 2012

  Actual Average Record
Temperature  
Mean Temperature 42 °F 20 °F  
Max Temperature 51 °F 29 °F 55 °F (1940)
Min Temperature 33 °F 11 °F -20 °F (1972)
Degree Days  
Heating Degree Days 23 45  
Month to date heating degree days 140 219  
Since 1 July heating degree days 1871 2262  
Cooling Degree Days 0 0  
Month to date cooling degree days 0 0  
Year to date cooling degree days 329 248  
Moisture  
Dew Point 29 °F    
Average Humidity 65    
Maximum Humidity 89    
Minimum Humidity 41    
Precipitation  
Precipitation T in 0.03 in 0.30 in (1919)
Month to date precipitation 0.48 0.13  
Year to date precipitation 5.56 9.45  
Sea Level Pressure  
Sea Level Pressure 29.98 in    
Wind  
Wind Speed 5 mph (SW)    
Max Wind Speed 21 mph    
Max Gust Speed 25 mph    
Visibility 10 miles    
Events Rain    
T = Trace of Precipitation, MM = Missing Value Source: NWS Daily Summary

Daily Weather History Graph

Daily Weather History Graph

Search for Another Location

Airport or City:

Trip Planner

Search our weather history database for the weather conditions in past years. The results will help you decide how hot, cold, wet, or windy it might be!

Date:

Astronomy

Dec. 05, 2012 Rise Set
Actual Time 7:58 AM MST 4:57 PM MST
Civil Twilight 7:25 AM MST 5:30 PM MST
Nautical Twilight 6:48 AM MST 6:06 PM MST
Astronomical Twilight 6:13 AM MST 6:42 PM MST
Moon No Moon Rise 12:12 PM MST (12/5)
Length of Visible Light 10h 05m
Length of Day
8h 59m
Waning Gibbous, 59% of the Moon is Illuminated
Dec 5
Waning Gibbous
Dec 6
Last Quarter
Dec 13
New
Dec 19
First Quarter
Dec 28
Full

Hourly Weather History & Observations

Time (MST) Temp. Windchill Dew Point Humidity Pressure Visibility Wind Dir Wind Speed Gust Speed Precip Events Conditions
12:55 AM 35.1 °F 30.1 °F 32.0 °F 89% 30.04 in 10.0 mi NE 5.8 mph - N/A   Overcast
1:55 AM 34.0 °F - 30.9 °F 89% 30.01 in 10.0 mi Calm Calm - N/A   Mostly Cloudy
2:55 AM 34.0 °F - 30.9 °F 89% 29.99 in 10.0 mi Calm Calm - N/A   Overcast
3:55 AM 35.1 °F 31.0 °F 32.0 °F 89% 29.98 in 10.0 mi NW 4.6 mph - N/A   Overcast
4:55 AM 35.1 °F - 30.9 °F 85% 29.97 in 10.0 mi Calm Calm - N/A   Overcast
5:55 AM 35.1 °F 32.2 °F 33.1 °F 92% 29.96 in 10.0 mi South 3.5 mph - 0.00 in Rain Light Rain
7:55 AM 36.0 °F 32.1 °F 32.0 °F 86% 29.97 in 10.0 mi North 4.6 mph - N/A   Overcast
8:55 AM 37.0 °F - 33.1 °F 86% 29.98 in 10.0 mi Calm Calm - N/A   Overcast
9:55 AM 37.9 °F - 34.0 °F 86% 29.96 in 10.0 mi Calm Calm - N/A   Mostly Cloudy
10:55 AM 43.0 °F 41.3 °F 36.0 °F 76% 29.94 in 10.0 mi NNE 3.5 mph - N/A   Mostly Cloudy
11:55 AM 46.0 °F 44.8 °F 36.0 °F 68% 29.93 in 10.0 mi ESE 3.5 mph - N/A   Mostly Cloudy
12:55 PM 51.1 °F - 28.9 °F 43% 29.91 in 10.0 mi WSW 8.1 mph - N/A   Scattered Clouds
1:55 PM 51.1 °F - 28.0 °F 41% 29.90 in 10.0 mi SW 8.1 mph 17.3 mph N/A   Scattered Clouds
2:55 PM 48.9 °F - 27.0 °F 43% 29.92 in 10.0 mi West 10.4 mph 23.0 mph N/A   Partly Cloudy
3:55 PM 46.9 °F - 25.0 °F 42% 29.95 in 10.0 mi WSW 5.8 mph - N/A   Clear
4:55 PM 45.0 °F 40.6 °F 24.1 °F 44% 29.97 in 10.0 mi SSW 8.1 mph - N/A   Scattered Clouds
5:55 PM 41.0 °F 35.8 °F 27.0 °F 57% 30.00 in 10.0 mi SW 8.1 mph - N/A   Mostly Cloudy
6:55 PM 36.0 °F 31.1 °F 25.0 °F 64% 30.02 in 10.0 mi SW 5.8 mph - N/A   Clear
7:55 PM 36.0 °F 30.3 °F 24.1 °F 62% 30.03 in 10.0 mi SW 6.9 mph - N/A   Clear
8:55 PM 36.0 °F 29.0 °F 24.1 °F 62% 30.04 in 10.0 mi SSW 9.2 mph - N/A   Mostly Cloudy
9:55 PM 37.0 °F 31.0 °F 21.9 °F 54% 30.04 in 10.0 mi SW 8.1 mph - N/A   Partly Cloudy
10:55 PM 35.1 °F 29.3 °F 21.9 °F 59% 30.04 in 10.0 mi SW 6.9 mph - N/A   Clear
11:55 PM 34.0 °F 28.0 °F 21.9 °F 61% 30.03 in 10.0 mi SW 6.9 mph - N/A   Clear